Wind_Speed
50 50 50 49 49 49 49 47 46 44 43 43 42 41 39 37 36 34 34 35 37 39 42 47 53 59 65 71 77 83 86 88 90 89 89 85 83 81 80 79 77 76 75
51 51 51 51 50 50 49 47 46 44 42 40 40 41 41 40 38 37 36 36 37 38 39 41 44 49 54 60 66 72 78 82 86 87 89 88 86 84 83 82 80 78 76
53 53 53 53 52 50 49 46 44 41 40 39 38 39 41 42 41 40 39 38 38 37 38 38 40 43 47 51 55 61 67 72 76 79 83 85 86 85 85 84 84 82 80
55 54 54 52 51 50 47 45 42 39 36 35 35 36 38 42 43 42 41 40 39 39 38 38 38 40 42 45 48 52 57 61 65 69 72 76 79 80 81 83 85 85 83
55 53 52 52 51 50 47 44 40 37 34 31 31 32 35 39 42 43 42 41 40 39 38 37 37 37 38 39 42 45 48 51 55 59 62 66 68 70 72 75 78 82 83
54 52 52 52 52 51 48 44 41 37 33 30 28 28 31 35 39 42 42 41 40 39 38 37 36 35 35 35 37 40 44 47 49 51 55 57 59 62 63 66 69 73 77
53 52 52 53 53 53 51 47 43 38 33 30 27 26 28 31 36 40 41 41 41 40 39 38 37 35 34 36 38 40 42 44 48 50 52 55 56 58 59 60 62 66 69
53 52 53 53 53 54 54 52 48 41 35 30 26 25 25 28 32 37 39 40 41 41 40 39 39 38 36 37 39 41 43 44 47 48 51 53 53 54 56 56 57 59 61
53 53 54 54 55 55 56 56 53 44 36 30 26 24 24 26 30 34 38 39 41 42 42 42 42 41 40 40 41 43 45 45 46 47 47 49 50 51 52 53 55 55 55
54 54 55 56 57 57 59 59 55 47 37 30 25 23 22 24 27 32 36 38 41 43 44 45 45 44 43 43 42 42 43 44 45 45 45 45 47 48 51 53 53 52 52
54 55 56 57 58 60 62 61 56 47 36 28 24 21 20 22 25 29 33 37 40 43 45 46 47 47 46 45 44 42 42 42 44 44 44 45 46 47 49 51 53 53 53
55 55 57 59 60 63 64 63 58 46 32 24 21 18 18 19 22 26 30 34 39 42 45 47 48 48 48 47 46 44 43 43 43 44 45 45 46 48 49 50 51 51 52
56 56 57 59 62 65 67 65 58 44 29 20 16 15 16 17 19 22 27 32 36 40 44 46 47 48 48 49 49 47 46 45 44 45 46 46 47 48 49 49 50 50 51
56 56 57 59 62 65 69 68 61 45 29 18 12 12 13 14 16 18 22 28 33 38 42 44 45 47 48 49 49 49 49 48 47 47 47 48 48 49 49 50 50 50 51
56 56 58 60 61 65 69 71 64 50 34 21 12 8 9 11 12 14 17 21 28 34 39 42 44 45 47 48 49 49 50 50 50 50 50 50 50 51 50 50 50 50 50
56 57 58 60 61 63 67 70 68 58 42 28 17 10 7 8 10 11 13 15 20 27 34 39 42 44 46 47 48 49 49 50 51 52 53 53 53 53 53 53 52 51 50
58 58 59 60 61 62 65 67 68 64 53 38 26 16 10 7 7 9 11 12 15 20 26 34 40 42 44 46 47 48 49 49 49 50 52 53 54 54 55 55 54 53 52
59 60 61 61 62 62 63 65 66 66 61 51 38 26 16 10 6 7 9 10 12 15 19 25 33 39 43 45 47 48 48 48 48 49 50 52 53 54 54 55 55 54 53
58 60 61 62 62 62 63 63 63 63 63 60 52 41 29 19 11 8 7 9 10 12 14 18 24 32 39 44 46 47 48 49 48 48 48 49 51 52 53 53 54 53 53
57 60 61 61 61 62 62 62 61 60 60 59 58 54 46 35 25 16 10 9 9 11 12 15 18 23 31 39 44 47 49 50 50 49 48 48 48 49 50 51 51 51 51
56 58 59 59 60 61 62 62 62 60 58 57 56 55 54 50 42 34 25 17 11 10 11 13 15 19 23 30 38 44 49 51 51 51 50 49 48 48 49 49 50 50 50
54 56 57 57 58 60 61 62 62 61 60 57 55 54 53 51 49 47 41 34 26 18 12 10 12 15 19 23 29 37 44 49 52 53 53 52 51 50 49 49 49 49 49
51 53 54 55 57 58 59 60 61 61 61 59 57 55 52 50 49 48 46 43 40 35 27 19 12 8 12 17 22 27 35 43 49 53 54 55 54 53 52 52 51 50 50
48 50 51 53 54 55 57 58 59 60 60 60 59 57 55 52 50 48 46 45 43 40 37 33 27 19 10 6 12 19 25 32 40 48 53 56 57 57 56 55 54 53 52
45 47 48 50 52 53 54 55 56 58 59 59 59 58 57 55 52 50 47 45 44 42 40 38 35 31 25 17 8 5 13 22 29 37 45 52 56 59 60 59 59 58 56
42 44 45 47 49 50 52 53 54 55 56 57 58 58 58 57 55 53 50 47 45 43 41 39 37 34 31 28 22 15 7 6 15 24 33 42 50 56 60 62 62 62 61
Wind_Direction
328 327 325 322 320 318 314 310 305 298 289 278 268 261 256 253 250 248 246 242 239 236 234 234 236 238 239 241 242 243 243 244 244 243 242 240 239 239 238 238 238 238 238
331 329 327 324 322 319 316 312 308 302 295 285 272 261 254 250 246 244 243 242 240 238 237 236 236 237 239 240 241 242 243 243 244 244 243 242 241 240 239 238 238 237 237
333 331 329 326 324 322 319 314 310 304 297 288 278 266 256 249 244 241 240 240 240 240 240 240 240 240 240 239 240 240 240 239 240 241 241 241 241 240 239 239 238 237 236
335 334 333 332 330 328 324 320 315 309 301 291 281 270 259 250 244 239 237 237 238 239 241 242 243 243 241 241 241 239 236 235 234 234 235 236 237 237 237 237 237 237 236
337 338 338 339 338 336 332 327 322 315 308 297 284 272 261 252 245 239 235 234 235 236 238 240 241 242 241 241 238 233 230 227 226 227 229 230 231 232 231 232 234 235 235
340 341 342 343 344 343 340 334 328 321 313 303 291 276 262 253 246 240 234 232 231 232 233 235 236 237 237 235 228 223 221 218 216 218 219 222 224 225 225 226 228 230 232
343 343 344 344 345 346 345 341 334 325 317 308 297 282 265 254 246 240 233 229 227 227 228 229 228 228 228 224 219 214 215 214 213 214 214 214 215 216 219 223 225 227 229
344 345 345 345 344 344 345 344 339 330 319 310 300 286 270 255 246 240 233 226 224 223 223 222 222 222 220 217 213 212 211 211 209 210 211 211 211 213 215 218 222 224 226
347 346 346 346 345 344 343 342 340 333 321 309 299 287 273 258 247 239 232 225 221 219 219 218 218 217 217 215 213 212 211 211 211 212 212 211 212 212 213 215 217 219 223
349 349 349 348 347 346 344 342 339 333 322 309 296 285 272 259 248 239 232 224 220 218 218 217 216 216 216 216 215 215 216 216 215 217 216 214 213 212 212 212 213 216 219
352 352 351 351 350 349 347 344 340 334 324 308 294 281 268 257 248 240 233 225 220 219 218 217 216 216 217 216 217 217 217 217 216 216 218 217 215 214 214 214 215 217 220
355 354 354 354 353 352 351 349 345 339 328 310 293 278 265 254 247 240 234 227 221 220 220 218 217 217 217 217 218 218 217 217 217 217 217 217 216 216 216 217 218 220 222
358 358 358 357 357 356 356 355 353 348 338 319 295 277 264 254 247 241 235 229 223 221 221 219 218 218 218 219 219 219 219 218 218 218 218 218 218 218 218 219 220 222 224
1 1 1 1 0 0 1 2 1 358 353 339 309 281 267 257 249 244 238 232 227 223 221 221 220 219 219 219 220 220 220 220 219 218 218 219 219 219 220 220 222 223 225
4 4 5 5 4 5 6 8 8 8 6 360 342 304 275 264 256 249 244 237 231 227 223 222 221 221 220 220 221 221 221 222 221 220 220 220 220 221 222 223 224 225 226
8 9 9 9 9 10 11 13 14 15 15 12 6 348 309 281 267 258 252 245 238 232 227 224 222 222 222 221 221 222 222 223 223 223 222 222 222 223 224 225 225 227 227
11 13 13 13 13 14 15 17 19 21 22 21 18 12 355 322 285 268 262 256 247 239 233 228 225 223 222 222 223 223 223 224 224 224 224 224 224 224 225 225 226 228 229
14 16 16 16 17 17 18 20 22 24 26 27 26 23 16 3 332 294 277 268 259 250 242 235 230 226 224 223 223 224 224 224 225 225 225 225 225 225 225 226 226 228 229
16 18 19 19 20 20 21 22 23 25 28 30 31 31 29 22 9 342 309 287 275 264 254 245 237 231 228 225 224 224 225 225 225 226 226 226 225 225 225 225 225 226 227
17 20 21 21 22 23 24 25 26 27 28 31 33 34 35 34 29 19 358 327 300 283 269 258 247 238 232 228 226 225 225 225 225 225 226 226 225 225 225 224 224 225 225
19 21 22 22 23 25 26 28 28 29 29 31 32 34 36 37 37 35 29 17 354 320 292 273 260 249 240 233 229 227 226 226 226 226 226 226 225 225 224 224 224 224 224
19 22 23 23 24 26 27 29 30 31 31 31 31 33 34 36 37 38 38 36 30 19 357 317 281 261 249 240 234 229 227 227 226 226 226 226 226 225 225 224 223 223 223
20 21 22 23 24 26 27 29 31 32 32 32 32 33 33 34 35 36 37 37 37 36 32 24 3 313 268 250 240 234 230 228 227 227 227 227 227 226 226 225 224 224 224
20 21 22 23 24 25 26 28 30 32 33 33 33 33 33 33 33 34 34 35 36 36 36 35 33 28 10 300 254 241 235 231 228 227 227 227 228 228 227 226 226 225 224
20 21 22 22 23 25 26 27 29 30 32 33 33 33 33 33 33 33 33 33 33 34 35 35 36 36 35 32 14 280 244 236 232 229 228 228 228 228 228 228 227 227 226
19 19 20 21 23 24 25 26 27 29 30 31 32 33 33 33 33 32 32 32 32 32 32 33 34 34 35 36 35 31 14 264 239 234 231 229 228 228 228 228 229 228 228
Height
5502 5491 5481 5471 5461 5451 5442 5434 5427 5422 5418 5416 5416 5417 5419 5421 5423 5425 5427 5431 5435 5439 5444 5450 5457 5465 5473 5481 5490 5500 5510 5521 5533 5546 5555 5569 5579 5589 5598 5607 5616 5625 5634
5493 5482 5471 5461 5450 5440 5430 5421 5414 5407 5403 5399 5399 5400 5402 5405 5409 5412 5415 5419 5423 5428 5432 5437 5443 5449 5456 5463 5470 5479 5489 5500 5512 5523 5534 5548 5559 5570 5580 5589 5598 5607 5617
5485 5473 5461 5450 5439 5428 5418 5409 5401 5394 5389 5385 5383 5384 5386 5389 5393 5398 5403 5407 5411 5416 5420 5425 5430 5435 5441 5447 5454 5461 5470 5480 5491 5502 5513 5526 5538 5549 5559 5569 5578 5588 5598
5476 5464 5452 5439 5428 5416 5406 5396 5388 5381 5376 5372 5369 5369 5370 5373 5378 5384 5389 5394 5399 5404 5408 5413 5417 5422 5427 5433 5439 5445 5453 5463 5473 5484 5494 5506 5517 5528 5538 5548 5558 5569 5580
5468 5456 5443 5431 5418 5406 5395 5386 5377 5370 5364 5360 5357 5355 5356 5358 5363 5369 5375 5381 5387 5392 5396 5401 5405 5410 5414 5419 5425 5432 5439 5448 5459 5468 5478 5489 5500 5510 5520 5530 5540 5550 5560
5461 5448 5436 5424 5411 5399 5387 5377 5368 5360 5354 5349 5345 5343 5343 5345 5348 5354 5361 5368 5374 5380 5385 5390 5395 5399 5404 5409 5414 5421 5428 5437 5447 5456 5465 5475 5484 5495 5505 5515 5523 5533 5544
5454 5442 5430 5417 5405 5393 5381 5370 5359 5351 5344 5339 5335 5332 5332 5332 5335 5340 5347 5355 5361 5368 5374 5379 5384 5389 5394 5399 5405 5412 5420 5427 5436 5444 5453 5461 5471 5483 5493 5503 5510 5516 5527
5447 5435 5424 5412 5399 5387 5375 5363 5352 5341 5334 5329 5325 5322 5321 5321 5323 5327 5334 5342 5349 5356 5362 5368 5374 5379 5385 5391 5397 5404 5411 5418 5426 5434 5441 5450 5460 5470 5480 5489 5496 5504 5513
5442 5430 5418 5406 5393 5380 5367 5355 5343 5332 5323 5318 5314 5311 5310 5310 5312 5315 5321 5330 5337 5344 5350 5357 5363 5369 5376 5382 5388 5395 5402 5409 5416 5423 5432 5440 5450 5460 5468 5477 5485 5492 5499
5438 5425 5412 5399 5386 5372 5358 5344 5331 5320 5311 5305 5302 5300 5299 5299 5301 5304 5309 5318 5325 5332 5338 5345 5352 5359 5366 5372 5379 5386 5393 5400 5407 5415 5423 5431 5440 5449 5457 5466 5474 5481 5488
5434 5421 5408 5394 5380 5365 5350 5333 5318 5306 5297 5291 5289 5289 5289 5289 5290 5293 5298 5305 5312 5319 5326 5333 5341 5349 5356 5363 5370 5377 5384 5392 5399 5407 5415 5423 5431 5439 5447 5455 5462 5470 5478
5431 5418 5404 5389 5374 5359 5342 5324 5307 5292 5283 5278 5277 5277 5278 5280 5281 5284 5288 5294 5301 5307 5314 5321 5330 5338 5346 5354 5361 5368 5375 5383 5391 5398 5406 5414 5421 5429 5437 5444 5452 5459 5467
5430 5416 5402 5387 5371 5355 5337 5317 5298 5283 5273 5268 5267 5268 5269 5271 5273 5276 5279 5284 5290 5296 5303 5311 5319 5327 5335 5343 5351 5358 5366 5374 5382 5389 5397 5404 5412 5419 5427 5434 5441 5449 5456
5430 5416 5402 5387 5371 5353 5334 5314 5294 5278 5268 5263 5261 5262 5263 5265 5267 5269 5272 5276 5281 5287 5294 5301 5309 5317 5325 5333 5340 5348 5356 5364 5372 5379 5387 5394 5402 5409 5416 5424 5431 5438 5446
5431 5417 5403 5388 5372 5354 5334 5314 5294 5278 5267 5262 5259 5259 5260 5261 5263 5265 5267 5270 5274 5279 5285 5292 5300 5307 5315 5322 5330 5338 5346 5354 5361 5369 5377 5384 5392 5399 5406 5413 5420 5427 5434
5434 5419 5405 5390 5374 5357 5339 5320 5300 5284 5271 5264 5260 5259 5259 5260 5261 5262 5264 5266 5269 5272 5278 5283 5290 5298 5305 5313 5320 5328 5335 5343 5350 5358 5366 5373 5381 5388 5395 5402 5410 5417 5424
5436 5421 5407 5392 5377 5361 5345 5328 5311 5294 5280 5270 5264 5261 5260 5260 5260 5261 5262 5263 5265 5268 5271 5276 5282 5288 5296 5303 5310 5317 5325 5332 5339 5347 5354 5361 5369 5377 5384 5391 5398 5406 5413
5440 5425 5410 5396 5381 5366 5351 5336 5321 5306 5292 5280 5271 5265 5262 5261 5260 5260 5261 5262 5263 5264 5266 5269 5274 5280 5286 5293 5300 5307 5315 5322 5329 5336 5343 5350 5357 5365 5372 5380 5387 5394 5401
5444 5430 5415 5401 5387 5373 5359 5345 5331 5318 5305 5293 5282 5273 5268 5264 5262 5261 5260 5260 5260 5261 5262 5264 5267 5271 5277 5283 5290 5297 5304 5311 5318 5325 5332 5339 5346 5353 5361 5368 5376 5383 5390
5449 5434 5421 5409 5396 5382 5369 5355 5342 5330 5318 5306 5296 5286 5277 5271 5266 5263 5261 5260 5259 5258 5259 5259 5261 5264 5267 5273 5279 5286 5293 5300 5307 5314 5321 5328 5335 5342 5350 5357 5365 5372 5380
5454 5441 5429 5418 5405 5392 5379 5365 5353 5341 5330 5319 5309 5299 5290 5282 5275 5269 5264 5261 5258 5257 5256 5255 5256 5257 5260 5263 5268 5274 5281 5288 5295 5303 5310 5317 5324 5332 5339 5346 5354 5362 5369
5460 5448 5437 5426 5414 5401 5389 5376 5364 5352 5341 5330 5320 5311 5302 5294 5286 5279 5272 5266 5261 5257 5254 5252 5251 5252 5253 5255 5258 5263 5269 5276 5283 5291 5298 5306 5313 5320 5328 5335 5343 5351 5359
5465 5454 5444 5433 5422 5411 5399 5387 5375 5364 5352 5342 5332 5322 5314 5305 5297 5289 5282 5275 5269 5263 5257 5253 5250 5248 5248 5249 5251 5254 5258 5264 5270 5277 5285 5293 5300 5308 5316 5324 5332 5340 5348
5471 5461 5451 5441 5430 5420 5409 5398 5386 5375 5364 5353 5343 5334 5324 5316 5308 5300 5292 5285 5278 5271 5265 5259 5254 5250 5247 5245 5245 5247 5249 5253 5258 5264 5271 5279 5287 5295 5303 5311 5320 5328 5336
5476 5467 5458 5448 5438 5428 5418 5407 5397 5386 5375 5365 5355 5345 5336 5327 5318 5310 5302 5294 5287 5280 5273 5267 5261 5256 5251 5247 5244 5243 5244 5246 5248 5252 5258 5264 5272 5280 5288 5297 5306 5315 5324
5481 5472 5464 5455 5445 5435 5426 5416 5406 5396 5386 5376 5366 5356 5347 5338 5329 5320 5312 5304 5296 5289 5282 5276 5269 5263 5257 5252 5248 5245 5242 5241 5242 5244 5247 5252 5258 5265 5273 5281 5290 5299 5309